TimeEST,TemperatureF,Dew PointF,Humidity,Sea Level PressureIn,VisibilityMPH,Wind Direction,Wind SpeedMPH,Gust SpeedMPH,PrecipitationIn,Events,Conditions,WindDirDegrees,DateUTC
12:53 AM,48.9,46.0,90,30.27,10.0,NNW,5.8,-,N/A,,Clear,330,2013-12-19 05:53:00
1:53 AM,50.0,46.0,86,30.25,10.0,NNW,5.8,-,N/A,,Clear,330,2013-12-19 06:53:00
2:53 AM,48.0,45.0,89,30.25,10.0,WNW,5.8,-,N/A,,Clear,290,2013-12-19 07:53:00
3:53 AM,48.0,45.0,89,30.25,10.0,WNW,4.6,-,N/A,,Clear,290,2013-12-19 08:53:00
4:53 AM,48.9,46.0,90,30.24,10.0,WNW,4.6,-,N/A,,Clear,300,2013-12-19 09:53:00
5:53 AM,46.9,45.0,93,30.25,10.0,WNW,5.8,-,N/A,,Clear,300,2013-12-19 10:53:00
6:53 AM,46.0,44.1,93,30.25,10.0,WNW,4.6,-,N/A,,Clear,290,2013-12-19 11:53:00
7:53 AM,50.0,48.0,93,30.26,10.0,West,4.6,-,N/A,,Clear,280,2013-12-19 12:53:00
8:53 AM,59.0,53.1,81,30.27,10.0,NNW,3.5,-,N/A,,Clear,330,2013-12-19 13:53:00
9:53 AM,68.0,57.0,68,30.28,10.0,North,3.5,-,N/A,,Clear,350,2013-12-19 14:53:00
10:53 AM,72.0,55.9,57,30.28,10.0,East,5.8,-,N/A,,Scattered Clouds,90,2013-12-19 15:53:00
11:53 AM,73.9,55.0,52,30.26,10.0,East,9.2,-,N/A,,Scattered Clouds,100,2013-12-19 16:53:00
12:53 PM,73.9,54.0,50,30.24,10.0,East,6.9,-,N/A,,Clear,80,2013-12-19 17:53:00
1:53 PM,75.0,55.0,50,30.22,10.0,East,8.1,-,N/A,,Scattered Clouds,80,2013-12-19 18:53:00
2:53 PM,73.0,55.0,53,30.20,10.0,ESE,8.1,-,N/A,,Partly Cloudy,110,2013-12-19 19:53:00
3:53 PM,73.0,54.0,51,30.20,10.0,East,8.1,-,N/A,,Scattered Clouds,100,2013-12-19 20:53:00
4:53 PM,72.0,55.0,55,30.21,10.0,East,6.9,-,N/A,,Partly Cloudy,100,2013-12-19 21:53:00
5:53 PM,70.0,54.0,57,30.21,10.0,ESE,4.6,-,N/A,,Partly Cloudy,110,2013-12-19 22:53:00
6:53 PM,68.0,55.0,63,30.21,10.0,East,3.5,-,N/A,,Clear,100,2013-12-19 23:53:00
7:53 PM,61.0,54.0,78,30.22,10.0,Calm,Calm,-,N/A,,Clear,0,2013-12-20 00:53:00
8:53 PM,61.0,55.0,81,30.23,10.0,Calm,Calm,-,N/A,,Mostly Cloudy,0,2013-12-20 01:53:00
9:53 PM,61.0,55.0,81,30.23,10.0,Calm,Calm,-,N/A,,Scattered Clouds,0,2013-12-20 02:53:00
10:53 PM,64.0,57.9,80,30.23,10.0,Calm,Calm,-,N/A,,Scattered Clouds,0,2013-12-20 03:53:00
11:53 PM,60.1,57.0,90,30.22,10.0,Calm,Calm,-,N/A,,Clear,0,2013-12-20 04:53:00